Wappingers Falls, NY

11:46 AM EDT on September 30, 2016 (GMT -0400)
Dutchess County

Weather History for KPOU - July, 2013

Change the Weather History Date:

Monday, July 8, 2013

  Actual Average Record
Temperature  
Mean Temperature 79 °F 72 °F  
Max Temperature 89 °F 84 °F 96 °F (1962)
Min Temperature 69 °F 60 °F 49 °F (1979)
Degree Days  
Heating Degree Days 0 0  
Month to date heating degree days 0 0  
Since 1 June heating degree days 31 49  
Since 1 July heating degree days 0 0  
Cooling Degree Days 14 7  
Month to date cooling degree days 123 56  
Year to date cooling degree days 330 219  
Since 1 June cooling degree days 277 183  
Growing Degree Days 30 (Base 50)    
Moisture  
Dew Point 67 °F    
Average Humidity 75    
Maximum Humidity 97    
Minimum Humidity 53    
Precipitation  
Precipitation 0.11 in 0.13 in 1.42 in (1987)
Month to date precipitation 1.21 1.05  
Year to date precipitation 21.68 22.98  
Sea Level Pressure  
Sea Level Pressure 29.98 in    
Wind  
Wind Speed 5 mph (SW)    
Max Wind Speed 20 mph    
Max Gust Speed 24 mph    
Visibility 10 miles    
Events Rain    
T = Trace of Precipitation, MM = Missing Value Source: NWS Daily Summary

Daily Weather History Graph

Daily Weather History Graph

Search for Another Location

Airport or City:

Trip Planner

Search our weather history database for the weather conditions in past years. The results will help you decide how hot, cold, wet, or windy it might be!

Date:

Astronomy

Jul. 08, 2013 Rise Set
Actual Time 5:29 AM EDT 8:31 PM EDT
Civil Twilight 4:55 AM EDT 9:05 PM EDT
Nautical Twilight 4:13 AM EDT 9:47 PM EDT
Astronomical Twilight 3:22 AM EDT 10:37 PM EDT
Moon 5:57 AM EDT (7/8) 8:30 PM EDT (7/8)
Length of Visible Light 16h 09m
Length of Day
15h 02m
New Moon, 0% of the Moon is Illuminated
Jul 8
New Moon
Jul 15
First Quarter
Jul 22
Full
Jul 29
Last Quarter
Aug 6
New

Hourly Weather History & Observations

Time (EDT) Temp. Heat Index Dew Point Humidity Pressure Visibility Wind Dir Wind Speed Gust Speed Precip Events Conditions
12:53 AM 78.1 °F - 64.0 °F 62% 29.94 in 10.0 mi SW 4.6 mph - N/A   Clear
1:53 AM 75.9 °F - 64.9 °F 69% 29.94 in 10.0 mi SSW 3.5 mph - N/A   Clear
2:53 AM 75.0 °F - 64.9 °F 71% 29.94 in 10.0 mi SSW 6.9 mph - N/A   Clear
3:53 AM 73.0 °F - 64.9 °F 76% 29.94 in 10.0 mi SSW 3.5 mph - N/A   Clear
4:53 AM 73.0 °F - 66.0 °F 79% 29.95 in 10.0 mi SW 4.6 mph - N/A   Clear
5:53 AM 72.0 °F - 66.9 °F 84% 29.97 in 10.0 mi Variable 3.5 mph - N/A   Clear
6:53 AM 73.0 °F - 66.9 °F 81% 29.98 in 10.0 mi SSW 3.5 mph - N/A   Clear
7:53 AM 75.0 °F - 68.0 °F 79% 30.00 in 10.0 mi SW 6.9 mph - N/A   Clear
8:53 AM 78.1 °F - 69.1 °F 74% 29.99 in 10.0 mi SW 9.2 mph - N/A   Clear
9:53 AM 81.0 °F 84.1 °F 69.1 °F 67% 29.99 in 10.0 mi SSW 5.8 mph - N/A   Clear
10:53 AM 82.9 °F 86.5 °F 69.1 °F 63% 29.99 in 10.0 mi SW 5.8 mph - N/A   Scattered Clouds
11:53 AM 84.9 °F 88.2 °F 68.0 °F 57% 30.00 in 10.0 mi West 5.8 mph - N/A   Clear
12:53 PM 86.0 °F 89.4 °F 68.0 °F 55% 29.99 in 10.0 mi SW 9.2 mph - N/A   Clear
1:53 PM 86.0 °F 90.1 °F 69.1 °F 57% 29.98 in 10.0 mi SW 10.4 mph - N/A   Partly Cloudy
2:53 PM 88.0 °F 92.1 °F 69.1 °F 53% 29.96 in 10.0 mi SW 5.8 mph - N/A   Partly Cloudy
3:53 PM 88.0 °F 91.4 °F 68.0 °F 51% 29.95 in 10.0 mi Variable 6.9 mph - N/A   Clear
4:53 PM 88.0 °F 91.4 °F 68.0 °F 51% 29.94 in 10.0 mi SW 8.1 mph - N/A   Partly Cloudy
5:53 PM 87.1 °F 90.6 °F 68.0 °F 53% 29.93 in 10.0 mi SSW 6.9 mph - N/A   Clear
6:53 PM 86.0 °F 90.1 °F 69.1 °F 57% 29.94 in 10.0 mi WSW 6.9 mph - N/A   Clear
7:29 PM 77.0 °F - 64.4 °F 65% 29.98 in 10.0 mi North 15.0 mph - N/A   Mostly Cloudy
7:53 PM 75.9 °F - 64.9 °F 69% 29.98 in 10.0 mi North 4.6 mph - N/A   Mostly Cloudy
8:53 PM 73.0 °F - 66.9 °F 81% 30.01 in 10.0 mi North 4.6 mph - 0.00 in   Mostly Cloudy
9:31 PM 71.6 °F - 66.2 °F 83% 30.03 in 2.5 mi Calm Calm - 0.09 in Rain Light Rain
9:38 PM 71.6 °F - 68.0 °F 88% 30.03 in 4.0 mi Calm Calm - 0.10 in Rain Light Rain
9:53 PM 71.1 °F - 68.0 °F 90% 30.02 in 10.0 mi Calm Calm - 0.11 in   Mostly Cloudy
10:53 PM 71.1 °F - 69.1 °F 93% 30.02 in 10.0 mi Calm Calm - N/A   Clear
11:53 PM 70.0 °F - 68.0 °F 93% 30.02 in 9.0 mi Calm Calm - N/A   Clear